Lexington Weather

Lexington, Massachusetts, USA

67°F
9/23/2021 4:32am 
  • Lexington Conditions: Overcast
  • Temperature: 66.9°F / 19.4°CWarmer 0.5°F than last hour.
  • Dew Point: 65.7°FIncreased 0.6°Fsince last hour.
  • Relative Humidity: 96
  • Wind: Calm, 10-min avg: Calm, gust: 3 mph
  • Barometer: 30.03 in Steady
  • Visibility: 10 miles
  • Rain Today: 0.00 in
  •   

Regional Weather Roundup
for Boston / Norton, MA

        
000
ASUS41 KBOX 190104
RWRBOX

REGIONAL WEATHER ROUNDUP
NATIONAL WEATHER SERVICE BOSTON/NORTON MA
900 PM EDT SAT SEP 18 2021

NOTE:  "FAIR" INDICATES FEW OR NO CLOUDS BELOW 12,000 FEET WITH NO 
SIGNIFICANT WEATHER AND/OR OBSTRUCTIONS TO VISIBILITY.

MAZALL-190200-
EASTERN MASSACHUSETTS
  
CITY           SKY/WX    TMP DP  RH WIND       PRES   REMARKS
BOSTON         MOCLDY    69  64  84 CALM      29.98S                  
BEVERLY        PTCLDY    66  65  96 CALM      29.98R                  
LAWRENCE       PTCLDY    70  67  90 CALM      30.01R                  
BEDFORD        PTCLDY    70  68  93 CALM      29.98R                  
BLUE HILL      NOT AVBL                                               
NORWOOD        CLEAR     63  61  93 CALM      29.98R                  
MARSHFIELD     FOG       63  63 100 CALM      29.98S VSB 1/2          
PLYMOUTH       CLEAR     64  63  96 CALM      29.99R                  
TAUNTON        CLEAR     63  62  97 CALM      29.99R FOG              
NEW BEDFORD    CLEAR     65  64  97 CALM      29.98R                  
$$

MAZALL-190200-
CAPE COD AND THE ISLANDS
  
CITY           SKY/WX    TMP DP  RH WIND       PRES   REMARKS
FALMOUTH       FOG       64  64 100 CALM      29.99R VSB 1/4          
HYANNIS        FOG       65  65 100 N5        29.97S VSB 3/4          
CHATHAM        CLOUDY    66  65  96 VRB3      29.99S FOG              
PROVINCETOWN   FOG       63  63 100 E3        29.99F VSB 1/4          
NANTUCKET      CLOUDY    69  66  90 N12       29.98R                  
MARTHAS VNYRD  CLEAR     63  62  97 NW3       29.98S                  
$$
 
MAZALL-190200-
CENTRAL AND WESTERN MASSACHUSETTS
  
CITY           SKY/WX    TMP DP  RH WIND       PRES   REMARKS
WORCESTER      LGT RAIN  69  66  90 NW13      30.03R                  
FITCHBURG      CLOUDY    71  66  84 CALM      30.01R                  
ORANGE         MOCLDY    69  67  93 CALM      30.03R                  
SPRINGFIELD    PTCLDY    68  68 100 NE5       30.00R                  
WESTFIELD      PTCLDY    73  68  84 NW3       30.01R                  
NORTH ADAMS    MOCLDY    66  59  78 W10       30.06R                  
PITTSFIELD     PTCLDY    67  63  87 NW3       30.06R                  
$$
 
RIZALL-190200-
RHODE ISLAND
  
CITY           SKY/WX    TMP DP  RH WIND       PRES   REMARKS
PROVIDENCE     PTCLDY    69  67  93 SW5       30.00R                  
NEWPORT        PTCLDY    66  65  96 CALM      30.00R                  
BLOCK ISLAND   MOCLDY    67  64  90 CALM      30.01R                  
SMITHFIELD     CLEAR     65  64  97 CALM      30.01R FOG              
WESTERLY       CLEAR     68  68 100 S3        30.00R                  
$$
 
CTZALL-190200-
CONNECTICUT
  
CITY           SKY/WX    TMP DP  RH WIND       PRES   REMARKS
BRADLEY INTL   PTCLDY    71  67  87 NW6       30.00R                  
HARTFORD       CLEAR     71  67  87 CALM      29.99R                  
BRIDGEPORT     CLEAR     76  66  71 NW3       30.00R                  
DANBURY        PTCLDY    73  68  84 SW3       30.04R                  
GROTON         PTCLDY    70  68  93 S7        29.99R                  
NEW HAVEN      CLEAR     72  68  87 CALM      30.00R                  
CHESTER        FAIR      70  68  94 CALM      30.01R                  
MERIDEN        CLEAR     69  67  93 CALM      30.00R                  
WILLIMANTIC    PTCLDY    70  68  93 CALM      30.01R                  
OXFORD         PTCLDY    70  66  87 NW7       30.04R                  
$$

MEZ002-015-021-024-NHZ003-005-008-011-012-014-VTZ005-008-190200-
NORTHERN NEW ENGLAND
  
CITY           SKY/WX    TMP DP  RH WIND       PRES   REMARKS
PORTLAND ME    MOCLDY    65  65 100 N3        30.01R                  
BANGOR ME      CLOUDY    66  56  70 NE9       30.02R                  
CONCORD NH     CLOUDY    72  64  76 N8        30.01R                  
MANCHESTER NH  MOCLDY    76  65  68 NW8       29.98R                  
NASHUA NH      CLOUDY    73  72  96 NW6       30.00R                  
PORTSMOUTH NH  MOCLDY    67  64  93 CALM      30.01S                  
JAFFREY NH     MOCLDY    72  66  81 CALM      30.04R                  
KEENE NH       MOCLDY    71  67  87 N5        30.03R                  
BURLINGTON VT  PTCLDY    61  53  75 E5        30.10S                  
MT. WASHINGTON FOG       45  45 100 N26         N/A  VSB 3/16         
$$

NYZ052-076-190200-
EASTERN NEW YORK
  
CITY           SKY/WX    TMP DP  RH WIND       PRES   REMARKS
ALBANY         MOCLDY    62  54  74 N9        30.09R                  
NEW YORK CITY  PTCLDY    82  62  50 NW12      30.00R                  
$$
 
ANZALL-190200-
MARINE OBSERVATIONS
  
STATION/POSITION TIME  TEMP    WIND        PRES    VSBY  WAVE
                       AIR SEA DIR/SP/G                  HT/PER
                 (UTC) (F)     (DEG/KT/KT) (MB)    (MI)  (FT/S)
BOSTON BUOY      0040      68  130/  4/  4 1015.4S
BUZZARDS BAY     0000           40/  5/  6 1016.3R
NANTUCKET SOUND  0040   68 73  360/ 10/ 12 1015.0F
MASS BAY-STELLWA 0004   66     150/  2/  4 1014.7R  1 7/8  4/11
ISLE OF SHOALS   0000   65     120/  6/  6 1014.7R
S OF BLOCK IS    0026      71                N/A           5/ 8
$$

......................KEY.........................
  SKY/WX - SKY CONDITION/PRESENT WEATHER
  TMP    - TEMPERATURE IN FAHRENHEIT
  DWPT   - DEWPOINT IN FAHRENHEIT
  RH     - RELATIVE HUMIDITY IN PERCENT
  WIND   - DIRECTION AND SPEED IN MPH
  PRES   - MEAN SEA LEVEL PRESSURE IN INCHES OF HG
  WCI    - WIND CHILL INDEX
  VSB    - VISIBILITY IN MILES
  HX     - HEAT INDEX
  TC     - TEMPERATURE IN CELSIUS
  VRB    - VARIABLE WIND DIRECTION
  N/A    - NOT AVAILABLE
  
      

Other recent Regional Weather Roundups

Thu Sep 23, 4:04am

Thu Sep 23, 3:04am

Thu Sep 23, 2:04am

Thu Sep 23, 1:04am

Thu Sep 23, 12:04am

Wed Sep 22, 11:04pm

Wed Sep 22, 10:04pm

Wed Sep 22, 9:04pm

Wed Sep 22, 8:04pm

Wed Sep 22, 7:04pm

Wed Sep 22, 6:04pm

Wed Sep 22, 5:04pm

Wed Sep 22, 4:04pm

Wed Sep 22, 3:04pm

Wed Sep 22, 2:04pm

Wed Sep 22, 1:04pm

Wed Sep 22, 12:05pm

Wed Sep 22, 11:04am

Wed Sep 22, 10:04am

Wed Sep 22, 9:04am

Wed Sep 22, 8:04am

Wed Sep 22, 7:04am

Wed Sep 22, 6:04am

Wed Sep 22, 5:04am

Wed Sep 22, 4:04am

Wed Sep 22, 3:04am

Wed Sep 22, 2:04am

Wed Sep 22, 1:04am

Wed Sep 22, 12:04am

Tue Sep 21, 11:04pm

Tue Sep 21, 10:04pm

Tue Sep 21, 9:04pm

Tue Sep 21, 8:04pm

Tue Sep 21, 7:04pm

Tue Sep 21, 6:04pm

Tue Sep 21, 5:04pm

Tue Sep 21, 4:04pm

Tue Sep 21, 3:04pm

Tue Sep 21, 2:04pm

Tue Sep 21, 1:04pm

Tue Sep 21, 12:04pm

Tue Sep 21, 11:04am

Tue Sep 21, 10:04am

Tue Sep 21, 9:04am

Tue Sep 21, 8:04am

Tue Sep 21, 7:04am

Tue Sep 21, 6:04am

Tue Sep 21, 5:04am

Tue Sep 21, 4:04am

Tue Sep 21, 3:04am

Tue Sep 21, 2:04am

Tue Sep 21, 1:04am

Tue Sep 21, 12:04am

Mon Sep 20, 11:04pm

Mon Sep 20, 10:04pm

Mon Sep 20, 9:04pm

Mon Sep 20, 8:04pm

Mon Sep 20, 7:04pm

Mon Sep 20, 6:04pm

Mon Sep 20, 5:04pm

Mon Sep 20, 4:04pm

Mon Sep 20, 3:04pm

Mon Sep 20, 2:04pm

Mon Sep 20, 1:04pm

Mon Sep 20, 12:04pm

Mon Sep 20, 11:04am

Mon Sep 20, 10:04am

Mon Sep 20, 9:04am

Mon Sep 20, 7:04am

Mon Sep 20, 6:04am

Mon Sep 20, 5:04am

Mon Sep 20, 4:04am

Mon Sep 20, 3:04am

Mon Sep 20, 2:04am

Mon Sep 20, 1:04am

Mon Sep 20, 12:04am

Sun Sep 19, 11:04pm

Sun Sep 19, 10:04pm

Sun Sep 19, 9:04pm

Sun Sep 19, 8:04pm

Sun Sep 19, 7:04pm

Sun Sep 19, 6:04pm

Sun Sep 19, 5:04pm

Sun Sep 19, 4:04pm

Sun Sep 19, 3:04pm

Sun Sep 19, 2:05pm

Sun Sep 19, 1:04pm

Sun Sep 19, 12:04pm

Sun Sep 19, 11:04am

Sun Sep 19, 10:05am

Sun Sep 19, 9:04am

Sun Sep 19, 8:04am

Sun Sep 19, 7:04am

Sun Sep 19, 6:04am

Sun Sep 19, 5:04am

Sun Sep 19, 4:04am

Sun Sep 19, 3:04am

Sun Sep 19, 2:04am

Sun Sep 19, 1:04am

Sun Sep 19, 12:04am

Sat Sep 18, 11:05pm

Sat Sep 18, 10:04pm

Sat Sep 18, 8:04pm

Sat Sep 18, 7:04pm

Sat Sep 18, 6:04pm

Sat Sep 18, 5:04pm

Sat Sep 18, 4:04pm

Sat Sep 18, 3:04pm

Sat Sep 18, 2:04pm

Sat Sep 18, 1:04pm

Sat Sep 18, 12:04pm

Sat Sep 18, 11:04am

Sat Sep 18, 10:04am

Sat Sep 18, 9:04am

Sat Sep 18, 8:04am

Sat Sep 18, 7:04am

Sat Sep 18, 6:04am

Sat Sep 18, 5:04am

Sat Sep 18, 4:04am

Sat Sep 18, 3:04am

Sat Sep 18, 2:04am

Sat Sep 18, 1:04am

Sat Sep 18, 12:04am

Fri Sep 17, 11:04pm

Fri Sep 17, 10:04pm

Fri Sep 17, 9:04pm

Fri Sep 17, 8:04pm

Fri Sep 17, 7:04pm

Fri Sep 17, 6:04pm

Fri Sep 17, 5:04pm

Fri Sep 17, 4:04pm

Fri Sep 17, 3:04pm

Fri Sep 17, 2:04pm

Fri Sep 17, 1:04pm

Fri Sep 17, 12:05pm

Fri Sep 17, 11:04am

Fri Sep 17, 10:04am

Fri Sep 17, 9:04am

Fri Sep 17, 8:04am

Fri Sep 17, 7:04am

Fri Sep 17, 6:04am

Fri Sep 17, 5:04am

Fri Sep 17, 4:04am

Fri Sep 17, 3:04am

Fri Sep 17, 2:04am

Fri Sep 17, 1:04am

Fri Sep 17, 12:04am

Thu Sep 16, 11:04pm

Thu Sep 16, 10:04pm

Thu Sep 16, 9:04pm

Thu Sep 16, 8:04pm

Thu Sep 16, 7:04pm

Thu Sep 16, 6:04pm

Thu Sep 16, 5:04pm

Thu Sep 16, 4:04pm

Thu Sep 16, 3:04pm

Thu Sep 16, 2:04pm

Thu Sep 16, 1:05pm

Thu Sep 16, 12:04pm

Thu Sep 16, 11:05am

Thu Sep 16, 10:05am

Thu Sep 16, 9:04am

Thu Sep 16, 8:04am

Thu Sep 16, 7:04am

Thu Sep 16, 6:04am

Thu Sep 16, 5:04am

Meta data:

ID: d0f73056-2f2c-40e6-8df7-4dc11c6b3dff
Link: https://api.weather.gov/products/d0f73056-2f2c-40e6-8df7-4dc11c6b3dff